This demonstration page uses our WeatherBlox Daily Observations layout. Learn more.

Left ArrowRight Arrow

Hourly Observations for March 6, 2016

Temp ( °F °C ) Dew Point ( °F °C ) Humidity (%) Winds ( mph kmh ) Pressure ( in mb ) Visibility ( mi km ) Precip ( " mm )
12:53 am 00:53 Cloudy 38 3.3 32 undefined 79 79 NNW 5 7 30.28 1025 7 11 N/A
1:46 am 01:46 Cloudy with Haze 38 3.3 33 0.6 83 83 N 5 7 30.30 1026 6 10 N/A
1:53 am 01:53 Cloudy with Haze 38 3.3 33 0.6 83 83 NNW 5 7 30.30 1026 6 10 N/A
2:53 am 02:53 Cloudy with Mist and Fog 37 2.8 33 0.6 86 86 N 5 7 30.30 1026 6 10 N/A
3:53 am 03:53 Cloudy with Mist and Fog 37 2.8 33 0.6 86 86 N N/A 30.29 1026 5 8 N/A
4:53 am 04:53 Cloudy with Mist and Fog 37 2.8 33 0.6 86 86 N 3 6 30.31 1026 5 8 N/A
5:53 am 05:53 Cloudy 37 2.8 31 -0.6 79 79 NE 3 6 30.32 1027 7 11 N/A
6:53 am 06:53 Cloudy 37 2.8 30 -1.1 76 76 N N/A 30.34 1027 9 14 N/A
7:53 am 07:53 Cloudy 37 2.8 28 -2.2 70 70 N N/A 30.35 1028 9 14 N/A
8:53 am 08:53 Cloudy 37 2.8 29 -1.7 73 73 N N/A 30.35 1028 9 14 N/A
9:53 am 09:53 Cloudy 38 3.3 29 -1.7 70 70 VRB 5 7 30.37 1028 8 13 N/A
10:53 am 10:53 Cloudy 42 5.6 31 -0.6 65 65 N N/A 30.35 1028 7 11 N/A
11:36 am 11:36 Partly Cloudy 43 6.1 31 -0.6 63 63 N N/A 30.33 1027 8 13 N/A
11:53 am 11:53 Mostly Sunny 44 6.7 32 undefined 63 63 ESE 6 9 30.31 1027 8 13 N/A
12:53 pm 12:53 Sunny 47 8.3 33 0.6 59 59 S 6 9 30.29 1026 8 13 N/A
1:53 pm 13:53 Sunny 49 9.4 33 0.6 55 55 SSW 5 7 30.26 1025 9 14 N/A
2:53 pm 14:53 Sunny 51 10.6 33 0.6 50 50 ESE 5 7 30.24 1024 10 16 N/A
3:53 pm 15:53 Sunny 52 11.1 33 0.6 49 49 VRB 6 9 30.21 1023 10 16 N/A
4:53 pm 16:53 Sunny 52 11.1 34 1.1 50 50 S 7 11 30.20 1023 10 16 N/A
5:53 pm 17:53 Sunny 51 10.6 34 1.1 52 52 N N/A 30.19 1023 10 16 N/A
6:53 pm 18:53 Clear 50 10 35 1.7 57 57 SSE 6 9 30.18 1022 10 16 N/A
7:53 pm 19:53 Clear 48 8.9 35 1.7 61 61 S 5 7 30.18 1022 10 16 N/A
8:53 pm 20:53 Clear 48 8.9 35 1.7 61 61 SSE 3 6 30.17 1022 10 16 N/A
9:53 pm 21:53 Clear 47 8.3 35 1.7 63 63 N N/A 30.16 1021 10 16 N/A
10:53 pm 22:53 Clear 46 7.8 35 1.7 66 66 VRB 3 6 30.14 1021 10 16 N/A
11:53 pm 23:53 Clear 45 7.2 35 1.7 68 68 N N/A 30.13 1020 10 16 N/A

Powered by AerisWeather